Regional Weather Roundup
Issued by NWS Goodland, KS

Home | Current Version | Previous Version | Graphics & Text | Print | Product List | Glossary On
Versions: 1 2 3 4 5 6 7 8 9 10 11 12 13 14 15 16 17 18 19 20 21 22 23 24 25 26 27 28 29 30 31 32 33 34 35 36 37 38 39 40 41 42 43 44 45 46 47 48 49 50
000
ASUS43 KGLD 041208
RWRGLD

GOODLAND FORECAST AREA HOURLY WEATHER ROUNDUP
NATIONAL WEATHER SERVICE GOODLAND KS
600 AM MDT FRI SEP 04 2015

...OFFICIAL OBSERVATIONS...

CITY           SKY/WX    TMP DP  RH WIND       PRES   REMARKS
GOODLAND KS    PTCLDY    61  53  75 W8        29.87R
HILL CITY KS   CLEAR     73  59  61 S7        29.82R
IMPERIAL NEB   CLEAR     62  57  83 NW9       29.84R
MCCOOK NEB     PTCLDY    68  57  68 SE7       29.79R
AKRON CO       CLEAR     57  51  80 W13       29.94S
BURLINGTON CO  PTCLDY    59  52  77 W10       29.92S
LIMON CO       CLEAR     50  48  93 N3        30.01R
$$

...UNOFFICIAL OBSERVATIONS...

CITY           SKY/WX    TMP DP  RH WIND       PRES   REMARKS
COLBY KS       CLEAR     66  61  82 W6        29.85R
GOVE KS          N/A     69  32  25 MISG        N/A
LENORA KS        N/A     71  32  23 MISG        N/A
NORTON KS      CLEAR     73  55  53 SE10      29.81
SHARON SPRINGS   N/A     60  54  81 W6          N/A
KIT CARSON CO    N/A     58  50  75 MISG        N/A
$$



USA.gov is the U.S. government's official web portal to all federal, state and local government web resources and services.